CZ-6A R/B (54236 NORAD) Tracking and Keplerian Element Data

This shows tracking and keplerian element data for the satellite.

Feedback or suggestion? Click here.




ElementValue
Catalog54236
NameCZ-6A R/B
Epoch Orbit129
Epoch Day325.17394303
Epoch Year2022
RAAN330.2167
Inclination98.8224
Eccentricity0.0027738
Argument of Perigee325.4018
Mean Anonmoly34.5351
Mean Motion14.17956063
Decay Rate2.95E-06
L11 54236U 22151B 22325.17394303 .00000295 00000+0 16547-3 0 9996
L22 54236 98.8224 330.2167 0027738 325.4018 34.5351 14.17956063 1292



Live tracking and technical data element details for CZ-6A R/B (NORAD 54236). CZ-6A R/B can be tracked NOW for your location showing map with azimuth and elevation plus other details from your city location.







IsCatalogInMostPopularTable: catalog: 54236, numindb: 4
Update: records affected: 1



GetName: 54236 CZ-6A R/B

Hit Count: updated at: Sun, 04 Dec 2022 22:44:46 GMT